Tracking 28790 objects as of 19-Apr-2024
HD Live streaming from Space Station
objects crossing your sky now

IRIDIUM 33 DEB

Track IRIDIUM 33 DEB now!
10-day predictions


NORAD ID: 36011
Int'l Code: 1997-051US
Perigee: 758.0 km
Apogee: 789.2 km
Inclination: 86.3 °
Period: 100.2 minutes
Semi major axis: 7144 km
RCS: 0.0036 m2 (small)
Launch date: September 14, 1997
Source: United States (US)
Launch site: TYURATAM MISSILE AND SPACE COMPLEX (TTMTR)

Note: This is SATELLITE DEBRIS
Your satellite tracking list
Your tracking list is empty




NASA's NSSDC Master Catalog

Two Line Element Set (TLE):
1 36011U 97051US  24108.27305618  .00003691  00000-0  12215-2 0  9992
2 36011  86.3364 294.1952 0021827  55.6134  68.2735 14.37580026558431
Source of the keplerian elements: AFSPC